Rbgn^[z[y[W
メイン
   新天体発見情報
     Comet C/2020 K7 (PANSTARRS)
投稿するにはまず登録を

スレッド表示 | 新しいものから 前のトピック | 次のトピック | 下へ
投稿者 スレッド
佐藤裕久
投稿日時: 2020-6-28 14:23
モデレータ
登録日: 2005-6-12
居住地: 日本
投稿: 2129
オンライン
Comet C/2020 K7 (PANSTARRS)

R. Weryk (ハワイ大学, 天文学研究所)の通報によると、5月20日、HaleakalaにあるPan-STARRS1 
1.8-m Ritchey-Chretien反射望遠鏡で得た4枚の45秒w-バンドCCD画像から彗星を発見した。
非常に集光した1.7"のコマ(1".0のシーイングにおいて)とp.a. 245-315°にまたいで広い6"の
尾がある。
小惑星センターのPCCP webpageに公表後、佐藤英貴氏(東京都文京区, iTelescope天文台, 5月
31.4日UT、120秒露出7枚のスタック, 0.43-m f/6.8 アストログラフ, Mayhill近郊, 
カリフォルニア州, 遠隔操作:強く集光した8" の丸いコマが見えるが尾はない。5".7の円形範囲
で測定した光度は19.3等であった)らCCD位置観測者によって彗星状と観測された。

彗星機能の追加報告は次の通り:

OC   Date        Reporter           Coma    Tail    PA          Exposures
K91  2020-05-31  J. D. Armstrong     4"      10"    245-270      4x300s
850  2020-05-31  D. T. Durig         8"
H06  2020-05-31  H. Sato             8"                          7x120s
X02  2020-06-02  E. Guido            6"      3"     306          8x180s

発見位置は次のとおり、

     2020 UT             R.A. (2000) Decl.       Mag.
     May  30.54805   20 30 08.25   - 9 22 17.4   20.2
          30.56223   20 30 08.15   - 9 22 14.0   20.3
          30.57644   20 30 08.06   - 9 22 11.1   20.1
          30.59060   20 30 07.96   - 9 22 07.7   20.3

MPCの暫定放物線軌道要素と位置推算表は次のとおり、

Orbital elements:
    C/2020 K7 (PANSTARRS)                                                       
T 2021 Oct. 5.30273 TT                                  Rudenko                 
q   5.6445711            (2000.0)            P               Q                  
                   Peri.   60.84127     +0.83236514     +0.12049131             
                   Node   287.47755     -0.42521428     +0.76487942             
e   1.0            Incl.   34.55202     +0.35547306     +0.63280432             
From 24 observations 2020 May 30-June 2.                                        
                                                                                
Ephemeris:
Date    TT    R. A. (2000) Decl.     Delta      r    Elong.  Phase   m1
2020 05 03    20 29 26.8 -11 13 20   6.5755  6.7522    95.8     8.5  20.4
...
2020 05 18    20 30 42.9 -10 10 59   6.2891  6.6959   109.6     8.2  20.3
...
2020 05 26    20 30 31.2 -09 39 30   6.1445  6.6662   117.0     7.8  20.2
...
2020 06 01    20 29 58.4 -09 16 54   6.0415  6.6441   122.7     7.4  20.1
2020 06 02    20 29 51.0 -09 13 13   6.0249  6.6405   123.6     7.3  20.1
2020 06 03    20 29 43.0 -09 09 34   6.0084  6.6368   124.6     7.2  20.1
...
2020 06 09    20 28 43.7 -08 48 17   5.9132  6.6150   130.3     6.7  20.1
...
2020 06 17    20 26 55.3 -08 21 38   5.7969  6.5862   137.9     5.9  20.0
...
2020 07 02    20 22 11.9 -07 37 36   5.6178  6.5330   152.0     4.2  19.9

(MPEC 2020-L09、CBET 4790)

スレッド表示 | 新しいものから 前のトピック | 次のトピック | トップ

投稿するにはまず登録を
 
© 1999 Tsutomu Seki.